| time (UTC) | temp F | wind direction | speed MPH | gust MPH | rain 1hr in | rain 24hr in | rain mn in | humidity % | barometer mb |
| 20260508110020 | 45 | 243 | 0.0 | 1.0 | 0.00 | 0.00 | 0.00 | 47 | 1012.8 |
| 20260508104520 | 45 | 251 | 0.0 | 1.0 | 0.00 | 0.00 | 0.00 | 46 | 1012.8 |
| 20260508103016 | 46 | 254 | 0.0 | 1.0 | 0.00 | 0.00 | 0.00 | 46 | 1012.9 |
| 20260508101511 | 48 | 221 | 0.0 | 2.0 | 0.00 | 0.00 | 0.00 | 42 | 1012.9 |
| 20260508100009 | 50 | 231 | 0.0 | 2.0 | 0.00 | 0.00 | 0.00 | 37 | 1013.1 |
| 20260508094507 | 49 | 192 | 0.0 | 3.0 | 0.00 | 0.00 | 0.00 | 40 | 1013.0 |
| 20260508093005 | 50 | 214 | 0.0 | 1.0 | 0.00 | 0.00 | 0.00 | 37 | 1012.9 |
| 20260508091508 | 49 | 205 | 2.0 | 4.0 | 0.00 | 0.00 | 0.00 | 38 | 1012.9 |
| 20260508090003 | 51 | 202 | 0.0 | 1.0 | 0.00 | 0.00 | 0.00 | 37 | 1012.9 |
| 20260508084600 | 52 | 169 | 0.0 | 3.0 | 0.00 | 0.00 | 0.00 | 36 | 1013.0 |
| 20260508083149 | 51 | 171 | 1.0 | 2.0 | 0.00 | 0.00 | 0.00 | 37 | 1013.1 |
| 20260508081557 | 52 | 167 | 0.0 | 2.0 | 0.00 | 0.00 | 0.00 | 40 | 1013.1 |
| 20260508080100 | 54 | 27 | 0.0 | 1.0 | 0.00 | 0.00 | 0.00 | 36 | 1013.2 |
| 20260508074549 | 56 | 176 | 0.0 | 2.0 | 0.00 | 0.00 | 0.00 | 32 | 1013.1 |
| 20260508073055 | 59 | 163 | 0.0 | 3.0 | 0.00 | 0.00 | 0.00 | 28 | 1013.0 |
| 20260508071544 | 59 | 157 | 1.0 | 3.0 | 0.00 | 0.00 | 0.00 | 28 | 1013.0 |
| 20260508070044 | 59 | 151 | 1.0 | 4.0 | 0.00 | 0.00 | 0.00 | 28 | 1013.1 |
| 20260508064601 | 59 | 150 | 1.0 | 3.0 | 0.00 | 0.00 | 0.00 | 26 | 1013.0 |
| 20260508063039 | 60 | 171 | 0.0 | 2.0 | 0.00 | 0.00 | 0.00 | 26 | 1013.0 |
| 20260508061537 | 62 | 269 | 0.0 | 1.0 | 0.00 | 0.00 | 0.00 | 25 | 1013.1 |
| 20260508060034 | 62 | 264 | 0.0 | 4.0 | 0.00 | 0.00 | 0.00 | 24 | 1013.1 |
| 20260508054531 | 62 | 135 | 0.0 | 3.0 | 0.00 | 0.00 | 0.00 | 24 | 1013.1 |
| 20260508053031 | 62 | 124 | 0.0 | 2.0 | 0.00 | 0.00 | 0.00 | 23 | 1013.2 |
| 20260508051530 | 62 | 216 | 1.0 | 4.0 | 0.00 | 0.00 | 0.00 | 23 | 1013.2 |
| 20260508050030 | 62 | 184 | 0.0 | 2.0 | 0.00 | 0.00 | 0.00 | 24 | 1013.2 |
| 20260508044529 | 63 | 234 | 0.0 | 1.0 | 0.00 | 0.00 | 0.00 | 23 | 1013.2 |
| 20260508043032 | 63 | 164 | 0.0 | 3.0 | 0.00 | 0.00 | 0.00 | 24 | 1013.1 |
| 20260508041528 | 64 | 122 | 0.0 | 2.0 | 0.00 | 0.00 | 0.00 | 23 | 1013.2 |
| 20260508040028 | 65 | 124 | 0.0 | 3.0 | 0.00 | 0.00 | 0.00 | 22 | 1013.0 |
| 20260508034527 | 65 | 53 | 0.0 | 2.0 | 0.00 | 0.00 | 0.00 | 22 | 1012.9 |
| 20260508033027 | 66 | 259 | 1.0 | 3.0 | 0.00 | 0.00 | 0.00 | 22 | 1012.6 |
| 20260508031526 | 67 | 217 | 2.0 | 6.0 | 0.00 | 0.00 | 0.00 | 22 | 1012.4 |
| 20260508030025 | 68 | 217 | 3.0 | 6.0 | 0.00 | 0.00 | 0.00 | 21 | 1012.3 |
| 20260508024528 | 70 | 217 | 4.0 | 7.0 | 0.00 | 0.00 | 0.00 | 20 | 1012.1 |
| 20260508023033 | 73 | 234 | 1.0 | 3.0 | 0.00 | 0.00 | 0.00 | 19 | 1011.9 |
| 20260508021523 | 75 | 301 | 6.0 | 11.0 | 0.00 | 0.00 | 0.00 | 17 | 1011.7 |
| 20260508020023 | 76 | 303 | 3.0 | 7.0 | 0.00 | 0.00 | 0.00 | 17 | 1011.6 |
| 20260508014530 | 77 | 256 | 4.0 | 9.0 | 0.00 | 0.00 | 0.00 | 16 | 1011.5 |
| 20260508013020 | 77 | 303 | 3.0 | 8.0 | 0.00 | 0.00 | 0.00 | 16 | 1011.8 |
| 20260508011520 | 77 | 299 | 7.0 | 17.0 | 0.00 | 0.00 | 0.00 | 15 | 1011.8 |
| 20260508010020 | 78 | 302 | 9.0 | 14.0 | 0.00 | 0.00 | 0.00 | 15 | 1012.1 |
| 20260508004516 | 79 | 285 | 3.0 | 11.0 | 0.00 | 0.00 | 0.00 | 14 | 1012.1 |
| 20260508003014 | 78 | 285 | 5.0 | 10.0 | 0.00 | 0.00 | 0.00 | 14 | 1012.2 |
| 20260508001513 | 78 | 191 | 5.0 | 12.0 | 0.00 | 0.00 | 0.00 | 15 | 1012.4 |
| 20260508000010 | 78 | 217 | 5.0 | 16.0 | 0.00 | 0.00 | 0.00 | 17 | 1012.2 |
| 20260507234513 | 78 | 283 | 9.0 | 17.0 | 0.00 | 0.00 | 0.00 | 16 | 1012.5 |
| 20260507233008 | 78 | 193 | 9.0 | 18.0 | 0.00 | 0.00 | 0.00 | 16 | 1012.4 |
| 20260507231507 | 77 | 228 | 9.0 | 16.0 | 0.00 | 0.00 | 0.00 | 16 | 1012.7 |
| 20260507230005 | 78 | 188 | 9.0 | 19.0 | 0.00 | 0.00 | 0.00 | 15 | 1012.9 |
| 20260507224506 | 77 | 213 | 9.0 | 18.0 | 0.00 | 0.00 | 0.00 | 16 | 1013.0 |
| 20260507223059 | 78 | 246 | 7.0 | 14.0 | 0.00 | 0.00 | 0.00 | 15 | 1013.1 |
| 20260507221556 | 77 | 309 | 6.0 | 18.0 | 0.00 | 0.00 | 0.00 | 15 | 1013.6 |
| 20260507220055 | 77 | 245 | 7.0 | 16.0 | 0.00 | 0.00 | 0.00 | 15 | 1013.8 |
| 20260507214606 | 77 | 279 | 3.0 | 13.0 | 0.00 | 0.00 | 0.00 | 17 | 1013.9 |
| 20260507213105 | 77 | 238 | 11.0 | 17.0 | 0.00 | 0.00 | 0.00 | 16 | 1014.3 |
| 20260507211548 | 76 | 250 | 7.0 | 19.0 | 0.00 | 0.00 | 0.00 | 18 | 1014.8 |
| 20260507210051 | 76 | 212 | 9.0 | 14.0 | 0.00 | 0.00 | 0.00 | 17 | 1015.0 |
| 20260507204555 | 76 | 197 | 11.0 | 18.0 | 0.00 | 0.00 | 0.00 | 18 | 1015.4 |
| 20260507203040 | 76 | 183 | 8.0 | 14.0 | 0.00 | 0.00 | 0.00 | 18 | 1015.6 |
| 20260507201540 | 76 | 212 | 5.0 | 12.0 | 0.00 | 0.00 | 0.00 | 19 | 1015.7 |
| 20260507200038 | 75 | 204 | 4.0 | 11.0 | 0.00 | 0.00 | 0.00 | 18 | 1016.0 |
| 20260507194531 | 75 | 216 | 7.0 | 11.0 | 0.00 | 0.00 | 0.00 | 19 | 1016.3 |
| 20260507193029 | 74 | 201 | 8.0 | 12.0 | 0.00 | 0.00 | 0.00 | 19 | 1016.5 |
| 20260507191525 | 74 | 67 | 2.0 | 11.0 | 0.00 | 0.00 | 0.00 | 19 | 1017.0 |
| 20260507190035 | 74 | 45 | 4.0 | 11.0 | 0.00 | 0.00 | 0.00 | 20 | 1017.4 |
| 20260507184527 | 73 | 217 | 4.0 | 14.0 | 0.00 | 0.00 | 0.00 | 19 | 1017.6 |
| 20260507183021 | 73 | 148 | 5.0 | 9.0 | 0.00 | 0.00 | 0.00 | 20 | 1017.6 |
| 20260507181514 | 72 | 219 | 2.0 | 8.0 | 0.00 | 0.00 | 0.00 | 20 | 1017.9 |
| 20260507180013 | 72 | 115 | 4.0 | 8.0 | 0.00 | 0.00 | 0.00 | 20 | 1018.2 |
| 20260507174511 | 71 | 319 | 2.0 | 6.0 | 0.00 | 0.00 | 0.00 | 20 | 1018.3 |
| 20260507173008 | 70 | 232 | 3.0 | 6.0 | 0.00 | 0.00 | 0.00 | 21 | 1018.6 |
| 20260507171506 | 70 | 70 | 3.0 | 6.0 | 0.00 | 0.00 | 0.00 | 21 | 1018.7 |
| 20260507170004 | 70 | 252 | 2.0 | 6.0 | 0.00 | 0.00 | 0.00 | 21 | 1019.0 |
| 20260507164601 | 69 | 307 | 1.0 | 3.0 | 0.00 | 0.00 | 0.00 | 21 | 1019.1 |
| 20260507163059 | 67 | 287 | 1.0 | 3.0 | 0.00 | 0.00 | 0.00 | 21 | 1019.3 |
| 20260507161556 | 65 | 87 | 0.0 | 3.0 | 0.00 | 0.00 | 0.00 | 23 | 1019.6 |
| 20260507160058 | 63 | 84 | 0.0 | 2.0 | 0.00 | 0.00 | 0.00 | 24 | 1019.9 |
| 20260507154547 | 61 | 66 | 1.0 | 3.0 | 0.00 | 0.00 | 0.00 | 24 | 1020.3 |
| 20260507153050 | 59 | 11 | 1.0 | 3.0 | 0.00 | 0.00 | 0.00 | 25 | 1020.4 |
| 20260507151539 | 56 | 290 | 1.0 | 4.0 | 0.00 | 0.00 | 0.00 | 29 | 1020.5 |
| 20260507150034 | 54 | 283 | 1.0 | 3.0 | 0.00 | 0.00 | 0.00 | 32 | 1020.6 |
| 20260507144530 | 51 | 255 | 1.0 | 3.0 | 0.00 | 0.00 | 0.00 | 33 | 1020.8 |
| 20260507143026 | 49 | 259 | 1.0 | 2.0 | 0.00 | 0.00 | 0.00 | 34 | 1021.0 |
| 20260507141522 | 46 | 260 | 0.0 | 3.0 | 0.00 | 0.00 | 0.00 | 39 | 1021.1 |
| 20260507140020 | 43 | 298 | 1.0 | 2.0 | 0.00 | 0.00 | 0.00 | 40 | 1021.1 |
| 20260507134520 | 41 | 267 | 0.0 | 1.0 | 0.00 | 0.00 | 0.00 | 47 | 1021.1 |
| 20260507133018 | 39 | 251 | 0.0 | 2.0 | 0.00 | 0.00 | 0.00 | 48 | 1021.1 |
| 20260507131517 | 36 | 212 | 1.0 | 2.0 | 0.00 | 0.00 | 0.00 | 53 | 1021.0 |
| 20260507130014 | 34 | 222 | 0.0 | 1.0 | 0.00 | 0.00 | 0.00 | 56 | 1020.9 |
| 20260507124517 | 33 | 252 | 0.0 | 1.0 | 0.00 | 0.00 | 0.00 | 55 | 1020.8 |
| 20260507123011 | 33 | 225 | 1.0 | 2.0 | 0.00 | 0.00 | 0.00 | 55 | 1020.7 |
| 20260507121508 | 33 | 243 | 0.0 | 2.0 | 0.00 | 0.00 | 0.00 | 54 | 1020.5 |
| 20260507120007 | 34 | 219 | 0.0 | 1.0 | 0.00 | 0.00 | 0.00 | 52 | 1020.4 |
| 20260507114506 | 34 | 233 | 0.0 | 2.0 | 0.00 | 0.00 | 0.00 | 52 | 1020.5 |
| 20260507113005 | 34 | 265 | 2.0 | 5.0 | 0.00 | 0.00 | 0.00 | 53 | 1020.5 |
| 20260507111502 | 34 | 263 | 1.0 | 2.0 | 0.00 | 0.00 | 0.00 | 54 | 1020.4 |